Air Quality Table

TIMESTAMP NO2 SO2 O3 PM10 PM2.5 TEMP HUM AIRPRES WS WD NO
2022-06-26 09:00 25.45 µg/m3 0.13 µg/m3 60.62 µg/m3 51.17 µg/m3 13.39 µg/m3 29.68 °C 58.77 % 1,007.48 mbar 3.35 m/s 185.97 Deg 6.76 µg/m3
2022-06-26 08:00 25.97 µg/m3 0.15 µg/m3 57.56 µg/m3 49 µg/m3 19.91 µg/m3 28.16 °C 69.33 % 1,007.57 mbar 2.55 m/s 190.13 Deg 6.3 µg/m3
2022-06-26 07:00 11.43 µg/m3 0.16 µg/m3 57.09 µg/m3 56.14 µg/m3 11.15 µg/m3 26.39 °C 83.51 % 1,007.34 mbar 1.65 m/s 176.03 Deg 2.23 µg/m3
2022-06-26 06:00 17.78 µg/m3 0.15 µg/m3 43.22 µg/m3 61.58 µg/m3 11.22 µg/m3 25.55 °C 89.08 % 1,006.88 mbar 0.75 m/s 189.82 Deg 1.89 µg/m3
2022-06-26 05:00 13.82 µg/m3 0.13 µg/m3 46.39 µg/m3 55.85 µg/m3 15.53 µg/m3 25.57 °C 83.31 % 1,006.46 mbar 1.03 m/s 102.48 Deg 1.27 µg/m3
2022-06-26 04:00 41.89 µg/m3 0.16 µg/m3 23.93 µg/m3 56.92 µg/m3 25.02 µg/m3 25.88 °C 74.89 % 1,006.19 mbar 1.37 m/s 241.83 Deg 2.01 µg/m3
2022-06-26 03:00 41.17 µg/m3 0.12 µg/m3 40.61 µg/m3 59.28 µg/m3 8.62 µg/m3 25.9 °C 74 % 1,006.05 mbar 2.83 m/s 194.75 Deg 3.37 µg/m3
2022-06-26 02:00 9.95 µg/m3 0.15 µg/m3 67.29 µg/m3 47.53 µg/m3 13.03 µg/m3 26.46 °C 62.39 % 1,006.26 mbar 1.94 m/s 177.95 Deg 0.54 µg/m3
2022-06-26 01:00 10.69 µg/m3 0.12 µg/m3 71.96 µg/m3 54.16 µg/m3 10.02 µg/m3 27.29 °C 48.13 % 1,006.51 mbar 1.38 m/s 154 Deg 0.56 µg/m3
2022-06-26 00:00 22.19 µg/m3 0.11 µg/m3 66.6 µg/m3 52.19 µg/m3 9.43 µg/m3 28.06 °C 40.87 % 1,006.75 mbar 0.9 m/s 189.4 Deg 0.6 µg/m3
2022-06-25 23:00 86.44 µg/m3 0.26 µg/m3 6.9 µg/m3 57.61 µg/m3 9.76 µg/m3 28.57 °C 32.33 % 1,007.11 mbar 0.58 m/s 161.03 Deg 12.99 µg/m3
2022-06-25 22:00 29.03 µg/m3 0.11 µg/m3 62.03 µg/m3 57.63 µg/m3 13.49 µg/m3 28.92 °C 31.64 % 1,007.13 mbar 1.07 m/s 245.63 Deg 1.09 µg/m3
2022-06-25 21:00 19.67 µg/m3 0.11 µg/m3 72.06 µg/m3 61.99 µg/m3 14.16 µg/m3 29.04 °C 36.44 % 1,006.97 mbar 0.82 m/s 289.1 Deg 0.7 µg/m3
2022-06-25 20:00 12.85 µg/m3 0.08 µg/m3 74.65 µg/m3 47.31 µg/m3 7.81 µg/m3 28.58 °C 44.5 % 1,006.49 mbar 1.47 m/s 230.88 Deg 0.93 µg/m3
2022-06-25 19:00 8.03 µg/m3 0.1 µg/m3 83.88 µg/m3 40.61 µg/m3 6.96 µg/m3 29.55 °C 40.15 % 1,006.38 mbar 2.65 m/s 197.75 Deg 0.81 µg/m3
2022-06-25 18:00 12.42 µg/m3 0.1 µg/m3 81.49 µg/m3 42.89 µg/m3 8.5 µg/m3 30.22 °C 40.24 % 1,006.29 mbar 3.03 m/s 189.97 Deg 1.54 µg/m3
2022-06-25 17:00 8.2 µg/m3 0.09 µg/m3 87.6 µg/m3 37.16 µg/m3 8.1 µg/m3 30.99 °C 35.16 % 1,006.40 mbar 3.4 m/s 190.07 Deg 1.43 µg/m3
2022-06-25 16:00 15.37 µg/m3 0.12 µg/m3 88.79 µg/m3 22.92 µg/m3 9.86 µg/m3 30.86 °C 42.94 % 1,006.83 mbar 3.53 m/s 174.13 Deg 2.8 µg/m3
2022-06-25 15:00 9.18 µg/m3 0.11 µg/m3 98.14 µg/m3 29.07 µg/m3 6.91 µg/m3 30.87 °C 40.38 % 1,007.05 mbar 3.68 m/s 163.48 Deg 1.68 µg/m3
2022-06-25 14:00 15.16 µg/m3 0.16 µg/m3 92.43 µg/m3 37.15 µg/m3 8.03 µg/m3 31 °C 40.79 % 1,007.41 mbar 3.32 m/s 165.38 Deg 2.82 µg/m3
2022-06-25 13:00 13.78 µg/m3 0.09 µg/m3 85.89 µg/m3 28.73 µg/m3 10.36 µg/m3 31.32 °C 40.89 % 1,007.68 mbar 3.04 m/s 170.42 Deg 2.74 µg/m3
2022-06-25 12:00 14.01 µg/m3 0.15 µg/m3 79.71 µg/m3 32.13 µg/m3 12.73 µg/m3 31.86 °C 33.09 % 1,007.92 mbar 2.34 m/s 219.37 Deg 2.77 µg/m3
2022-06-25 11:00 23.12 µg/m3 0.18 µg/m3 65.61 µg/m3 38.52 µg/m3 7.85 µg/m3 31.85 °C 36.1 % 1,007.93 mbar 2.52 m/s 211.93 Deg 6.13 µg/m3
2022-06-25 10:00 29.55 µg/m3 0.22 µg/m3 53.52 µg/m3 52.16 µg/m3 10.78 µg/m3 31.11 °C 34.21 % 1,007.58 mbar 3.08 m/s 152.72 Deg 8.94 µg/m3
2022-06-25 09:00 28.09 µg/m3 0.25 µg/m3 55.57 µg/m3 41.74 µg/m3 5.06 µg/m3 31.74 °C 29.7 % 1,007.36 mbar 1.69 m/s 179.83 Deg 7.8 µg/m3
2022-06-25 08:00 26.72 µg/m3 0.26 µg/m3 52.63 µg/m3 38.69 µg/m3 5.08 µg/m3 30.5 °C 29.25 % 1,007.20 mbar 1.07 m/s 157.2 Deg 5.94 µg/m3
2022-06-25 07:00 51.02 µg/m3 0.53 µg/m3 23.71 µg/m3 20.28 µg/m3 6.01 µg/m3 29.11 °C 30.01 % 1,007.01 mbar 0.66 m/s 90.94 Deg 24.71 µg/m3
2022-06-25 06:00 46.79 µg/m3 0.41 µg/m3 16.68 µg/m3 19 µg/m3 6.6 µg/m3 28.72 °C 26.49 % 1,006.62 mbar 0.94 m/s 316.47 Deg 22.9 µg/m3
2022-06-25 05:00 38.53 µg/m3 0.32 µg/m3 19.12 µg/m3 30.95 µg/m3 6.68 µg/m3 27.28 °C 41.39 % 1,006.38 mbar 1.27 m/s 293.23 Deg 8.15 µg/m3
2022-06-25 04:00 27.87 µg/m3 0.25 µg/m3 27.61 µg/m3 20.25 µg/m3 6.59 µg/m3 27.17 °C 49.36 % 1,006.19 mbar 1.42 m/s 323.53 Deg 1.23 µg/m3
2022-06-25 03:00 37.13 µg/m3 0.22 µg/m3 23.63 µg/m3 17.22 µg/m3 9.55 µg/m3 27.19 °C 50.17 % 1,006.32 mbar 1.42 m/s 341 Deg 1.64 µg/m3
2022-06-25 02:00 17.65 µg/m3 0.16 µg/m3 39.86 µg/m3 22.49 µg/m3 12.98 µg/m3 27.28 °C 52.38 % 1,006.43 mbar 1.33 m/s 341.22 Deg 0.9 µg/m3
2022-06-25 01:00 22.4 µg/m3 0.21 µg/m3 41 µg/m3 37.94 µg/m3 18.36 µg/m3 26.97 °C 56.9 % 1,006.74 mbar 2.21 m/s 258.88 Deg 2.13 µg/m3
2022-06-25 00:00 56.15 µg/m3 0.32 µg/m3 17.35 µg/m3 35.03 µg/m3 12.4 µg/m3 28.61 °C 49.87 % 1,006.72 mbar 1.72 m/s 252.35 Deg 11.9 µg/m3
2022-06-24 23:00 52.24 µg/m3 0.25 µg/m3 30.33 µg/m3 43.7 µg/m3 13.2 µg/m3 28.12 °C 53.43 % 1,006.78 mbar 0.93 m/s 254.75 Deg 11.61 µg/m3
2022-06-24 22:00 45.85 µg/m3 0.16 µg/m3 23.96 µg/m3 40.84 µg/m3 12.51 µg/m3 26.99 °C 64.39 % 1,006.73 mbar 1.14 m/s 215.21 Deg 3.68 µg/m3
2022-06-24 21:00 27.79 µg/m3 0.15 µg/m3 38.06 µg/m3 46.05 µg/m3 13.22 µg/m3 28.1 °C 55.79 % 1,006.34 mbar 0.93 m/s 219.07 Deg 1.97 µg/m3
2022-06-24 20:00 14.41 µg/m3 0.08 µg/m3 62.91 µg/m3 53.01 µg/m3 11 µg/m3 28.19 °C 58.07 % 1,006.04 mbar 1.02 m/s 143.67 Deg 1.1 µg/m3
2022-06-24 19:00 9.14 µg/m3 0.13 µg/m3 82.79 µg/m3 45.02 µg/m3 13.29 µg/m3 30.54 °C 44.34 % 1,005.61 mbar 1.64 m/s 261.3 Deg 0.69 µg/m3
2022-06-24 18:00 12.08 µg/m3 0.16 µg/m3 85.21 µg/m3 44.86 µg/m3 11.22 µg/m3 32.15 °C 39.48 % 1,005.60 mbar 1.57 m/s 247.42 Deg 1.39 µg/m3
2022-06-24 17:00 12.96 µg/m3 0.18 µg/m3 89.59 µg/m3 40.98 µg/m3 7.65 µg/m3 33.53 °C 36.73 % 1,005.57 mbar 2.21 m/s 173.03 Deg 2 µg/m3
2022-06-24 16:00 9.34 µg/m3 0.16 µg/m3 96.94 µg/m3 41.79 µg/m3 11.77 µg/m3 34.97 °C 29.86 % 1,005.91 mbar 2 m/s 179.73 Deg 1.42 µg/m3
2022-06-24 15:00 11.98 µg/m3 0.16 µg/m3 95.05 µg/m3 48.6 µg/m3 15.92 µg/m3 33.74 °C 38.12 % 1,006.41 mbar 2.66 m/s 149.22 Deg 1.99 µg/m3
2022-06-24 14:00 15.39 µg/m3 0.21 µg/m3 86.09 µg/m3 35.51 µg/m3 7.36 µg/m3 33.89 °C 37.3 % 1,006.68 mbar 2.29 m/s 217.17 Deg 3.27 µg/m3
2022-06-24 13:00 22.85 µg/m3 0.24 µg/m3 79 µg/m3 37.74 µg/m3 10.46 µg/m3 34.24 °C 34.24 % 1,006.84 mbar 2.01 m/s 150.97 Deg 4.87 µg/m3
2022-06-24 12:00 24.59 µg/m3 0.23 µg/m3 77.91 µg/m3 54.46 µg/m3 13.37 µg/m3 32.99 °C 40.32 % 1,006.98 mbar 2.44 m/s 265.12 Deg 5.55 µg/m3
2022-06-24 11:00 22.52 µg/m3 0.28 µg/m3 78.38 µg/m3 53.01 µg/m3 20.67 µg/m3 31.52 °C 43.47 % 1,007.13 mbar 2.8 m/s 97.72 Deg 5.4 µg/m3
2022-06-24 10:00 27.13 µg/m3 0.26 µg/m3 82.56 µg/m3 78.12 µg/m3 10.68 µg/m3 31.4 °C 38.79 % 1,007.03 mbar 2.05 m/s 243.03 Deg 4.8 µg/m3
2022-06-24 09:00 49.43 µg/m3 0.38 µg/m3 66.73 µg/m3 81.33 µg/m3 11.54 µg/m3 31.33 °C 32.56 % 1,006.81 mbar 2.04 m/s 210.97 Deg 9.71 µg/m3
2022-06-24 08:00 74.28 µg/m3 0.59 µg/m3 39.67 µg/m3 80.1 µg/m3 15.63 µg/m3 31.42 °C 20.61 % 1,006.57 mbar 1.25 m/s 325.02 Deg 23.25 µg/m3
2022-06-24 07:00 88.59 µg/m3 0.6 µg/m3 20.81 µg/m3 63.15 µg/m3 3.98 µg/m3 28.95 °C 22.49 % 1,006.26 mbar 0.97 m/s 328.55 Deg 31.05 µg/m3
2022-06-24 06:00 70.28 µg/m3 0.31 µg/m3 34.7 µg/m3 30.59 µg/m3 4.07 µg/m3 28.05 °C 21.49 % 1,006.05 mbar 2.02 m/s 305.47 Deg 10.47 µg/m3
2022-06-24 05:00 24 µg/m3 0.18 µg/m3 67.73 µg/m3 14.15 µg/m3 4.47 µg/m3 28.23 °C 22.75 % 1,005.96 mbar 2.03 m/s 285.85 Deg 1.73 µg/m3
2022-06-24 04:00 8.86 µg/m3 0.15 µg/m3 86.82 µg/m3 9.4 µg/m3 5.5 µg/m3 28.96 °C 22.68 % 1,005.97 mbar 3.01 m/s 299.73 Deg 0.51 µg/m3
2022-06-24 03:00 19.37 µg/m3 0.14 µg/m3 78.59 µg/m3 12.12 µg/m3 6.11 µg/m3 28.71 °C 23.48 % 1,006.32 mbar 3.28 m/s 293.8 Deg 0.77 µg/m3
2022-06-24 02:00 7.18 µg/m3 0.13 µg/m3 85.01 µg/m3 18.47 µg/m3 7.33 µg/m3 28.31 °C 26.85 % 1,006.89 mbar 2.26 m/s 282.43 Deg 0.47 µg/m3
2022-06-24 01:00 13.05 µg/m3 0.14 µg/m3 73.55 µg/m3 30.85 µg/m3 8.08 µg/m3 27.32 °C 39.83 % 1,007.45 mbar 1.84 m/s 275.67 Deg 0.64 µg/m3
2022-06-24 00:00 16.94 µg/m3 0.17 µg/m3 58.53 µg/m3 34.45 µg/m3 11.09 µg/m3 26.56 °C 55.2 % 1,007.87 mbar 0.97 m/s 274.88 Deg 0.75 µg/m3
2022-06-23 23:00 24.92 µg/m3 0.14 µg/m3 57.72 µg/m3 40.94 µg/m3 18.66 µg/m3 26.98 °C 58.09 % 1,008.20 mbar 1.12 m/s 310.08 Deg 0.97 µg/m3
2022-06-23 22:00 35.56 µg/m3 0.19 µg/m3 50.7 µg/m3 46.75 µg/m3 17.6 µg/m3 27.33 °C 56.12 % 1,008.07 mbar 1.65 m/s 187.18 Deg 1.7 µg/m3
2022-06-23 21:00 20.8 µg/m3 0.16 µg/m3 56.61 µg/m3 33.37 µg/m3 16.59 µg/m3 27.57 °C 54.48 % 1,007.67 mbar 1.34 m/s 141.3 Deg 0.75 µg/m3
2022-06-23 20:00 19.71 µg/m3 0.13 µg/m3 62.84 µg/m3 42.83 µg/m3 9.78 µg/m3 28.26 °C 49.6 % 1,006.94 mbar 1.22 m/s 216.2 Deg 0.82 µg/m3
2022-06-23 19:00 23.51 µg/m3 0.15 µg/m3 68.96 µg/m3 39.01 µg/m3 12.28 µg/m3 29.88 °C 44.22 % 1,006.65 mbar 1.8 m/s 241.9 Deg 1.62 µg/m3
2022-06-23 18:00 15.19 µg/m3 0.14 µg/m3 86.85 µg/m3 39 µg/m3 10.36 µg/m3 31.84 °C 36.26 % 1,006.42 mbar 2.12 m/s 263.48 Deg 1.62 µg/m3
2022-06-23 17:00 19.47 µg/m3 0.18 µg/m3 89.46 µg/m3 40.59 µg/m3 8.15 µg/m3 32.72 °C 30.9 % 1,006.82 mbar 2.69 m/s 308.38 Deg 4.63 µg/m3
2022-06-23 16:00 11.27 µg/m3 0.14 µg/m3 96.66 µg/m3 35.32 µg/m3 7.77 µg/m3 32.86 °C 33.19 % 1,007.24 mbar 3.07 m/s 286.45 Deg 1.81 µg/m3
2022-06-23 15:00 12.7 µg/m3 0.19 µg/m3 97.03 µg/m3 42.26 µg/m3 9.22 µg/m3 32.75 °C 33.51 % 1,007.39 mbar 2.96 m/s 303.42 Deg 2.4 µg/m3
2022-06-23 14:00 11.79 µg/m3 0.16 µg/m3 95.66 µg/m3 31.55 µg/m3 13 µg/m3 32.78 °C 35.3 % 1,007.60 mbar 3.31 m/s 298.15 Deg 2.22 µg/m3
2022-06-23 13:00 15.1 µg/m3 0.16 µg/m3 97.45 µg/m3 27.93 µg/m3 6.68 µg/m3 33.25 °C 30.9 % 1,007.61 mbar 2.74 m/s 299.65 Deg 2.63 µg/m3
2022-06-23 12:00 20.96 µg/m3 -0.26 µg/m3 94.48 µg/m3 28.28 µg/m3 7.87 µg/m3 33.87 °C 25.64 % 1,007.66 mbar 2.35 m/s 337.35 Deg 3.55 µg/m3
2022-06-23 11:00 16.98 µg/m3 0.03 µg/m3 96.66 µg/m3 39.86 µg/m3 8.51 µg/m3 32.76 °C 26.03 % 1,007.72 mbar 2.57 m/s 334.33 Deg 3.63 µg/m3
2022-06-23 10:00 22.01 µg/m3 0.03 µg/m3 93.76 µg/m3 46.75 µg/m3 14.15 µg/m3 31.76 °C 33.51 % 1,007.80 mbar 2.47 m/s 326.83 Deg 3.95 µg/m3
2022-06-23 09:00 31.82 µg/m3 0.06 µg/m3 81.54 µg/m3 55.07 µg/m3 18.79 µg/m3 30.88 °C 36.15 % 1,007.86 mbar 1.57 m/s 332.77 Deg 5.4 µg/m3
2022-06-23 08:00 44.9 µg/m3 0.14 µg/m3 62.29 µg/m3 54.33 µg/m3 18.63 µg/m3 28.91 °C 39.14 % 1,007.77 mbar 1.56 m/s 307.82 Deg 8.14 µg/m3
2022-06-23 07:00 61.54 µg/m3 0.14 µg/m3 43.04 µg/m3 53.86 µg/m3 10.38 µg/m3 27.05 °C 38.26 % 1,007.40 mbar 1.62 m/s 295.03 Deg 12.71 µg/m3
2022-06-23 06:00 60.86 µg/m3 0.11 µg/m3 30.32 µg/m3 34.18 µg/m3 14.35 µg/m3 25.17 °C 52.36 % 1,007.18 mbar 1.94 m/s 299.58 Deg 12.71 µg/m3
2022-06-23 05:00 18.21 µg/m3 0.02 µg/m3 60.31 µg/m3 17.43 µg/m3 6.97 µg/m3 24.87 °C 59.11 % 1,006.75 mbar 1.92 m/s 283.9 Deg 1.68 µg/m3
2022-06-23 04:00 8.63 µg/m3 0.1 µg/m3 74 µg/m3 17.16 µg/m3 8.04 µg/m3 24.93 °C 45.89 % 1,006.29 mbar 1.61 m/s 248.93 Deg 0.52 µg/m3
2022-06-23 03:00 7.8 µg/m3 -0 µg/m3 83.58 µg/m3 13.97 µg/m3 11.64 µg/m3 25.6 °C 42.78 % 1,006.38 mbar 1.59 m/s 299.83 Deg 0.57 µg/m3
2022-06-23 02:00 16.26 µg/m3 0.01 µg/m3 68.06 µg/m3 16.09 µg/m3 12.82 µg/m3 26.02 °C 44.7 % 1,006.60 mbar 0.9 m/s 272.93 Deg 0.58 µg/m3
2022-06-23 01:00 27.75 µg/m3 -0.04 µg/m3 69.7 µg/m3 26.66 µg/m3 9.45 µg/m3 26.36 °C 43 % 1,006.82 mbar 0.71 m/s 309.77 Deg 0.65 µg/m3
2022-06-23 00:00 18.27 µg/m3 -0.01 µg/m3 72.57 µg/m3 25.49 µg/m3 8.97 µg/m3 26.48 °C 41.23 % 1,007.19 mbar 1.03 m/s 278.02 Deg 0.56 µg/m3
2022-06-22 23:00 15.12 µg/m3 -0.01 µg/m3 77.91 µg/m3 19.99 µg/m3 8.59 µg/m3 26.65 °C 38.07 % 1,007.45 mbar 1.23 m/s 297.6 Deg 0.56 µg/m3
2022-06-22 22:00 22.46 µg/m3 -0.03 µg/m3 68.92 µg/m3 28.98 µg/m3 7.73 µg/m3 26.88 °C 38.76 % 1,007.41 mbar 1.43 m/s 304.02 Deg 0.81 µg/m3
2022-06-22 21:00 17.23 µg/m3 -0.03 µg/m3 77.64 µg/m3 33.71 µg/m3 11.41 µg/m3 27.08 °C 40.28 % 1,007.08 mbar 1.4 m/s 301.88 Deg 0.84 µg/m3
2022-06-22 20:00 18.35 µg/m3 -0.04 µg/m3 80.57 µg/m3 24.51 µg/m3 7.29 µg/m3 27.87 °C 40.95 % 1,006.79 mbar 1.76 m/s 310.98 Deg 1.3 µg/m3
2022-06-22 19:00 16.63 µg/m3 -0.03 µg/m3 92.38 µg/m3 25.94 µg/m3 6.65 µg/m3 29.44 °C 37.23 % 1,006.59 mbar 2.56 m/s 308.32 Deg 1.37 µg/m3
2022-06-22 18:00 16.94 µg/m3 -0 µg/m3 96.57 µg/m3 20.15 µg/m3 8.76 µg/m3 30.91 °C 31.5 % 1,006.43 mbar 2.62 m/s 308.38 Deg 2.08 µg/m3
2022-06-22 17:00 10.98 µg/m3 -0.06 µg/m3 101.59 µg/m3 23.1 µg/m3 5.57 µg/m3 31.12 °C 34.37 % 1,006.68 mbar 1.84 m/s 271.88 Deg 1.62 µg/m3
2022-06-22 16:00 12.45 µg/m3 -0.07 µg/m3 99.87 µg/m3 22.13 µg/m3 5.12 µg/m3 31.31 °C 36.54 % 1,007.23 mbar 2.31 m/s 326.63 Deg 2.18 µg/m3
2022-06-22 15:00 8.49 µg/m3 0.04 µg/m3 102.08 µg/m3 21.24 µg/m3 6.47 µg/m3 31.27 °C 38.34 % 1,007.30 mbar 2.75 m/s 296.02 Deg 1.5 µg/m3
2022-06-22 14:00 8.12 µg/m3 0.19 µg/m3 96.02 µg/m3 28.36 µg/m3 8.56 µg/m3 30.46 °C 41.27 % 1,007.21 mbar 2.95 m/s 267 Deg 1.76 µg/m3
2022-06-22 13:00 7.94 µg/m3 0.02 µg/m3 90.32 µg/m3 34.72 µg/m3 6.24 µg/m3 29.67 °C 51.5 % 1,007.37 mbar 2.95 m/s 263.87 Deg 1.87 µg/m3
2022-06-22 12:00 10.9 µg/m3 0.03 µg/m3 85.38 µg/m3 29.64 µg/m3 7.96 µg/m3 29.7 °C 51.55 % 1,007.58 mbar 3.42 m/s 267.15 Deg 2.66 µg/m3
2022-06-22 11:00 12.3 µg/m3 -0.02 µg/m3 97.14 µg/m3 43.32 µg/m3 12.17 µg/m3 30.22 °C 43.79 % 1,007.64 mbar 3.11 m/s 277.67 Deg 2.41 µg/m3
2022-06-22 10:00 17.3 µg/m3 0 µg/m3 91.23 µg/m3 38.42 µg/m3 6.19 µg/m3 29.86 °C 45.28 % 1,007.56 mbar 1.73 m/s 267.02 Deg 4.04 µg/m3
2022-06-22 09:00 29.85 µg/m3 0.03 µg/m3 79.93 µg/m3 37.91 µg/m3 7.19 µg/m3 29.52 °C 39.53 % 1,007.43 mbar 1.72 m/s 322.6 Deg 5.85 µg/m3
2022-06-22 08:00 56.71 µg/m3 0.12 µg/m3 46.53 µg/m3 34.01 µg/m3 9.88 µg/m3 27.36 °C 47.3 % 1,007.32 mbar 1.46 m/s 320.17 Deg 14.51 µg/m3
2022-06-22 07:00 53.66 µg/m3 0.08 µg/m3 34.49 µg/m3 24.11 µg/m3 13.58 µg/m3 24.97 °C 68.86 % 1,006.83 mbar 0.97 m/s 297.21 Deg 12.78 µg/m3
2022-06-22 06:00 40.02 µg/m3 0.04 µg/m3 32.27 µg/m3 23.51 µg/m3 9.23 µg/m3 23.42 °C 87.82 % 1,006.63 mbar 1.12 m/s 306.85 Deg 8.02 µg/m3
2022-06-22 05:00 14.66 µg/m3 -0.05 µg/m3 47.62 µg/m3 12.49 µg/m3 7.76 µg/m3 22.97 °C 93.82 % 1,006.46 mbar 0.78 m/s 284.18 Deg 1.61 µg/m3
2022-06-22 04:00 6.15 µg/m3 -0.02 µg/m3 60.29 µg/m3 8.89 µg/m3 6.48 µg/m3 23.35 °C 86.93 % 1,006.47 mbar 1.27 m/s 258.02 Deg 0.63 µg/m3
2022-06-22 03:00 6.23 µg/m3 -0.07 µg/m3 60.91 µg/m3 11.59 µg/m3 9.01 µg/m3 23.55 °C 85.87 % 1,006.91 mbar 0.92 m/s 249.13 Deg 0.58 µg/m3
2022-06-22 02:00 3.32 µg/m3 -0.07 µg/m3 66.08 µg/m3 16.51 µg/m3 12.9 µg/m3 23.79 °C 84.69 % 1,007.25 mbar 0.77 m/s 297 Deg 0.57 µg/m3
2022-06-22 01:00 2.35 µg/m3 -0.11 µg/m3 65.96 µg/m3 26.2 µg/m3 9.74 µg/m3 23.84 °C 91.16 % 1,007.57 mbar 1.1 m/s 283.6 Deg 0.53 µg/m3
2022-06-22 00:00 6.06 µg/m3 -0.07 µg/m3 62.31 µg/m3 36.85 µg/m3 12.83 µg/m3 23.99 °C 87.38 % 1,008.01 mbar 1.01 m/s 262.9 Deg 0.61 µg/m3
2022-06-21 23:00 6.54 µg/m3 -0.06 µg/m3 66.54 µg/m3 28.97 µg/m3 12.5 µg/m3 24.45 °C 85.67 % 1,008.22 mbar 1.19 m/s 290.19 Deg 0.64 µg/m3
2022-06-21 22:00 9.78 µg/m3 -0.07 µg/m3 65.02 µg/m3 31.25 µg/m3 19.07 µg/m3 24.71 °C 80.63 % 1,008.38 mbar 1.27 m/s 267.07 Deg 0.68 µg/m3
2022-06-21 21:00 10.16 µg/m3 -0.06 µg/m3 70.38 µg/m3 27.72 µg/m3 7.91 µg/m3 25.29 °C 70.46 % 1,008.25 mbar 1.36 m/s 263.2 Deg 0.7 µg/m3
2022-06-21 20:00 12.2 µg/m3 -0.05 µg/m3 76.69 µg/m3 26.64 µg/m3 6.71 µg/m3 26.15 °C 59.8 % 1,008.11 mbar 1.93 m/s 292.13 Deg 1.15 µg/m3
2022-06-21 19:00 12.85 µg/m3 -0.11 µg/m3 78 µg/m3 18.61 µg/m3 5.4 µg/m3 27.08 °C 58.08 % 1,008.05 mbar 2.17 m/s 271.53 Deg 1.19 µg/m3
2022-06-21 18:00 9.22 µg/m3 -0.09 µg/m3 96.59 µg/m3 16.07 µg/m3 5.99 µg/m3 28.79 °C 46.04 % 1,007.88 mbar 2.72 m/s 281.2 Deg 1.34 µg/m3
2022-06-21 17:00 16.2 µg/m3 -0.06 µg/m3 100.95 µg/m3 26.19 µg/m3 5.79 µg/m3 29.57 °C 46.77 % 1,008.07 mbar 2.39 m/s 262.83 Deg 4.09 µg/m3
2022-06-21 16:00 3.99 µg/m3 -0.06 µg/m3 115.28 µg/m3 24.67 µg/m3 6.46 µg/m3 27.9 °C 63.9 % 1,008.43 mbar 3.93 m/s 130.67 Deg 0.82 µg/m3
2022-06-21 15:00 2.35 µg/m3 -0.1 µg/m3 119.84 µg/m3 20.9 µg/m3 9.41 µg/m3 28.13 °C 62.31 % 1,008.62 mbar 3.67 m/s 154.8 Deg 0.68 µg/m3
2022-06-21 14:00 6.02 µg/m3 -0.1 µg/m3 119.17 µg/m3 27.41 µg/m3 12.78 µg/m3 27.97 °C 62.38 % 1,008.88 mbar 4.42 m/s 146.57 Deg 1.14 µg/m3
2022-06-21 13:00 3.9 µg/m3 -0.07 µg/m3 120.55 µg/m3 29.56 µg/m3 10.45 µg/m3 28.32 °C 61.7 % 1,009.00 mbar 3.42 m/s 212.8 Deg 0.86 µg/m3
2022-06-21 12:00 5.39 µg/m3 -0.07 µg/m3 122.02 µg/m3 32.79 µg/m3 17.4 µg/m3 27.75 °C 64.32 % 1,009.30 mbar 3.14 m/s 130.26 Deg 1 µg/m3
2022-06-21 11:00 20.12 µg/m3 -0.04 µg/m3 111.24 µg/m3 40.98 µg/m3 6.87 µg/m3 27.63 °C 63.68 % 1,009.55 mbar 3.61 m/s 196.95 Deg 3.31 µg/m3
2022-06-21 10:00 17.38 µg/m3 0 µg/m3 111.13 µg/m3 58.84 µg/m3 10.87 µg/m3 28.56 °C 50.51 % 1,009.77 mbar 2.18 m/s 317.28 Deg 2.91 µg/m3
2022-06-21 09:00 30.09 µg/m3 0.06 µg/m3 94.7 µg/m3 41.16 µg/m3 17.35 µg/m3 27.83 °C 52.55 % 1,009.79 mbar 1.59 m/s 341.05 Deg 4.79 µg/m3
2022-06-21 08:00 50.78 µg/m3 0.12 µg/m3 74.22 µg/m3 28 µg/m3 11.33 µg/m3 26.59 °C 57.33 % 1,009.49 mbar 1.48 m/s 342.8 Deg 9.72 µg/m3
2022-06-21 07:00 53.6 µg/m3 0.07 µg/m3 64.46 µg/m3 40.91 µg/m3 16.21 µg/m3 24.75 °C 69.71 % 1,009.00 mbar 1.16 m/s 319.25 Deg 8.32 µg/m3
2022-06-21 06:00 58.24 µg/m3 0.07 µg/m3 46.92 µg/m3 26.37 µg/m3 9.02 µg/m3 23.39 °C 80.16 % 1,008.78 mbar 0.85 m/s 310.43 Deg 7.12 µg/m3
2022-06-21 05:00 22.81 µg/m3 -0.03 µg/m3 77.44 µg/m3 21.3 µg/m3 15.16 µg/m3 23.11 °C 81.26 % 1,008.62 mbar 0.84 m/s 332.75 Deg 1.11 µg/m3
2022-06-21 04:00 8.76 µg/m3 0.03 µg/m3 90.08 µg/m3 26.38 µg/m3 9.18 µg/m3 23.12 °C 80.97 % 1,008.60 mbar 1.03 m/s 308.63 Deg 0.63 µg/m3
2022-06-21 03:00 8.22 µg/m3 -0.02 µg/m3 90.2 µg/m3 24.77 µg/m3 11.2 µg/m3 23.34 °C 78.63 % 1,009.01 mbar 1.33 m/s 311.85 Deg 0.61 µg/m3
2022-06-21 02:00 11.64 µg/m3 -0.04 µg/m3 87.19 µg/m3 25.03 µg/m3 9.05 µg/m3 23.82 °C 76.49 % 1,009.12 mbar 0.91 m/s 325 Deg 0.68 µg/m3
2022-06-21 01:00 17.94 µg/m3 -0.04 µg/m3 85.22 µg/m3 32.29 µg/m3 8.06 µg/m3 24.08 °C 76.62 % 1,009.39 mbar 0.83 m/s 322.33 Deg 0.75 µg/m3
2022-06-21 00:00 25.99 µg/m3 -0.07 µg/m3 84.11 µg/m3 23.32 µg/m3 11.6 µg/m3 24.35 °C 78.57 % 1,009.74 mbar 0.88 m/s 335.31 Deg 0.76 µg/m3
2022-06-20 23:00 11.63 µg/m3 -0.05 µg/m3 109.23 µg/m3 27.21 µg/m3 14.61 µg/m3 24.58 °C 76.73 % 1,010.00 mbar 1.52 m/s 264.92 Deg 0.57 µg/m3
2022-06-20 22:00 7.46 µg/m3 -0.08 µg/m3 116.63 µg/m3 31.66 µg/m3 9.25 µg/m3 24.6 °C 77.08 % 1,009.93 mbar 1.45 m/s 6.83 Deg 0.63 µg/m3
2022-06-20 21:00 10.8 µg/m3 -0.06 µg/m3 103.68 µg/m3 20.53 µg/m3 6.22 µg/m3 24.82 °C 77.1 % 1,009.58 mbar 1.75 m/s 94.23 Deg 0.91 µg/m3
2022-06-20 20:00 9.25 µg/m3 -0.04 µg/m3 89.04 µg/m3 24.62 µg/m3 8.53 µg/m3 24.63 °C 72.41 % 1,009.13 mbar 1.45 m/s 228.33 Deg 0.62 µg/m3
2022-06-20 19:00 5.25 µg/m3 -0.09 µg/m3 102.21 µg/m3 22.73 µg/m3 11.06 µg/m3 25.28 °C 74.53 % 1,008.83 mbar 1.73 m/s 205.32 Deg 0.64 µg/m3
2022-06-20 18:00 17.42 µg/m3 -0.06 µg/m3 93.43 µg/m3 26.22 µg/m3 8.94 µg/m3 25.56 °C 73.83 % 1,008.72 mbar 2.67 m/s 169.78 Deg 1.94 µg/m3
2022-06-20 17:00 13.28 µg/m3 -0.07 µg/m3 99.57 µg/m3 34.81 µg/m3 5.51 µg/m3 25.79 °C 72.16 % 1,008.57 mbar 2.93 m/s 162.22 Deg 1.98 µg/m3
2022-06-20 16:00 2.07 µg/m3 -0.06 µg/m3 114.87 µg/m3 13.38 µg/m3 5.67 µg/m3 26.67 °C 65.14 % 1,008.67 mbar 3.12 m/s 149.58 Deg 0.65 µg/m3
2022-06-20 15:00 1.33 µg/m3 -0.09 µg/m3 116.97 µg/m3 6.33 µg/m3 4.77 µg/m3 26.78 °C 64.7 % 1,008.88 mbar 3.38 m/s 151.03 Deg 0.57 µg/m3
2022-06-20 14:00 2.41 µg/m3 -0.09 µg/m3 115.37 µg/m3 7.57 µg/m3 5.29 µg/m3 27.28 °C 60.26 % 1,009.04 mbar 2.49 m/s 255.88 Deg 0.68 µg/m3
2022-06-20 13:00 0.81 µg/m3 -0.07 µg/m3 119.31 µg/m3 8.73 µg/m3 5.98 µg/m3 26.27 °C 59.78 % 1,009.19 mbar 3.19 m/s 189.88 Deg 0.49 µg/m3
2022-06-20 12:00 2.26 µg/m3 -0.09 µg/m3 112.8 µg/m3 9.46 µg/m3 6.24 µg/m3 26.48 °C 53.31 % 1,009.37 mbar 2.83 m/s 203.55 Deg 0.72 µg/m3
2022-06-20 11:00 7.45 µg/m3 -0.09 µg/m3 100.85 µg/m3 12.79 µg/m3 6.3 µg/m3 26.01 °C 58.05 % 1,009.47 mbar 3.44 m/s 138.23 Deg 1.57 µg/m3
2022-06-20 10:00 5.44 µg/m3 -0.07 µg/m3 106.2 µg/m3 16.06 µg/m3 8.26 µg/m3 26.32 °C 56.13 % 1,009.38 mbar 2.28 m/s 245.97 Deg 1.13 µg/m3
2022-06-20 09:00 5.8 µg/m3 -0.05 µg/m3 101.02 µg/m3 27.34 µg/m3 10.36 µg/m3 25.54 °C 59.1 % 1,009.24 mbar 1.94 m/s 221.72 Deg 1.29 µg/m3
2022-06-20 08:00 19.94 µg/m3 -0.05 µg/m3 75.72 µg/m3 33.42 µg/m3 12.92 µg/m3 24.86 °C 76.2 % 1,009.03 mbar 1.6 m/s 256.41 Deg 3.58 µg/m3
2022-06-20 07:00 20.23 µg/m3 -0.06 µg/m3 74.32 µg/m3 26.98 µg/m3 10.64 µg/m3 23.85 °C 84.49 % 1,008.58 mbar 0.73 m/s 239.53 Deg 2.94 µg/m3
2022-06-20 06:00 33.69 µg/m3 0.01 µg/m3 50.44 µg/m3 29.06 µg/m3 12.55 µg/m3 22.84 °C 93.59 % 1,008.13 mbar 0.93 m/s 100.44 Deg 5.24 µg/m3
2022-06-20 05:00 16.96 µg/m3 -0.02 µg/m3 62.21 µg/m3 21.53 µg/m3 7.67 µg/m3 22.42 °C 95.6 % 1,007.85 mbar 0.83 m/s 22.58 Deg 1.09 µg/m3
2022-06-20 04:00 5.26 µg/m3 -0.05 µg/m3 79 µg/m3 27.66 µg/m3 8.94 µg/m3 22.4 °C 96.43 % 1,007.67 mbar 1.28 m/s 98.55 Deg 0.69 µg/m3
2022-06-20 03:00 9.15 µg/m3 -0.1 µg/m3 74.42 µg/m3 20.58 µg/m3 15 µg/m3 22.37 °C 95.04 % 1,007.84 mbar 1.59 m/s 37.9 Deg 0.77 µg/m3
2022-06-20 02:00 15.36 µg/m3 -0.03 µg/m3 67.52 µg/m3 25.99 µg/m3 16.85 µg/m3 22.37 °C 97.16 % 1,008.01 mbar 1.55 m/s 29.05 Deg 0.99 µg/m3
2022-06-20 01:00 8.32 µg/m3 -0.05 µg/m3 74.52 µg/m3 34.94 µg/m3 11.23 µg/m3 22.63 °C 99.68 % 1,008.32 mbar 1.39 m/s 28.9 Deg 0.76 µg/m3
2022-06-20 00:00 5.2 µg/m3 -0.08 µg/m3 86.83 µg/m3 27.09 µg/m3 17.81 µg/m3 22.81 °C 98.14 % 1,008.53 mbar 0.95 m/s 27.6 Deg 0.67 µg/m3
2022-06-19 23:00 4.15 µg/m3 -0.1 µg/m3 91.03 µg/m3 20.72 µg/m3 12.02 µg/m3 22.83 °C 98.46 % 1,008.70 mbar 0.84 m/s 117 Deg 0.5 µg/m3
2022-06-19 22:00 0.91 µg/m3 -0.1 µg/m3 90.99 µg/m3 17.3 µg/m3 10.18 µg/m3 22.89 °C 97.79 % 1,008.65 mbar 0.65 m/s 123.17 Deg 0.46 µg/m3
2022-06-19 21:00 1.81 µg/m3 -0.09 µg/m3 89.94 µg/m3 25.38 µg/m3 11.54 µg/m3 22.99 °C 97.49 % 1,008.34 mbar 1.06 m/s 126.68 Deg 0.5 µg/m3
2022-06-19 20:00 3.03 µg/m3 -0.07 µg/m3 93.56 µg/m3 34.36 µg/m3 12.98 µg/m3 23.32 °C 95.58 % 1,007.86 mbar 2.08 m/s 134.98 Deg 0.47 µg/m3
2022-06-19 19:00 1.71 µg/m3 -0.07 µg/m3 99.47 µg/m3 23.09 µg/m3 11.97 µg/m3 24.01 °C 87.94 % 1,007.50 mbar 3.5 m/s 136.37 Deg 0.51 µg/m3
2022-06-19 18:00 2.58 µg/m3 -0.08 µg/m3 100.74 µg/m3 15.07 µg/m3 8.09 µg/m3 24.36 °C 84.55 % 1,007.26 mbar 4.26 m/s 133.85 Deg 0.61 µg/m3
2022-06-19 17:00 2.04 µg/m3 -0.09 µg/m3 107.12 µg/m3 20.36 µg/m3 8.31 µg/m3 24.91 °C 78.47 % 1,007.35 mbar 4.62 m/s 125.25 Deg 0.63 µg/m3
2022-06-19 16:00 1.12 µg/m3 -0.09 µg/m3 111.93 µg/m3 25.66 µg/m3 8.63 µg/m3 25.1 °C 79.76 % 1,007.62 mbar 4 m/s 192.77 Deg 0.56 µg/m3
2022-06-19 15:00 0.83 µg/m3 -0.1 µg/m3 117.18 µg/m3 24.2 µg/m3 10.99 µg/m3 25.08 °C 81.67 % 1,008.06 mbar 3.96 m/s 201.88 Deg 0.51 µg/m3
2022-06-19 14:00 0.86 µg/m3 -0.11 µg/m3 115.45 µg/m3 18.32 µg/m3 7.68 µg/m3 25.25 °C 79.21 % 1,008.44 mbar 4.01 m/s 162.17 Deg 0.55 µg/m3
2022-06-19 13:00 0.95 µg/m3 -0.1 µg/m3 115.98 µg/m3 15.27 µg/m3 8.03 µg/m3 25.33 °C 80.51 % 1,008.63 mbar 4.44 m/s 168.83 Deg 0.56 µg/m3
2022-06-19 12:00 1.69 µg/m3 -0.07 µg/m3 118.43 µg/m3 18.86 µg/m3 7 µg/m3 25.25 °C 81.42 % 1,008.71 mbar 4.7 m/s 194.55 Deg 0.64 µg/m3
2022-06-19 11:00 2.87 µg/m3 -0.1 µg/m3 122.48 µg/m3 14.6 µg/m3 7 µg/m3 24.94 °C 83.62 % 1,008.62 mbar 4.47 m/s 189.18 Deg 0.77 µg/m3

It is to be noted that the data is provisional and subject to quality assurance procedures. For validated data kindly refer your request to contact.air@era.org.mt